Find Starlink 6379

NORAD ID: 57343 Int'l Des: 2023-099 Owner: SPXS Country: US Constellation: starlink operational
LEOCIRCULAR

Live Position

Loading 3D Globe...

About Starlink 6379

Description loading...

Upcoming Passes

Passes for default location (London). Set your location on the main map for personalized predictions.

Altitude History

Loading altitude history...

Two-Line Element Set

1 57343U 23099R 26124.52516821 .00000633 00000-0 33291-4 0 9994
2 57343 43.0050 297.2468 0001305 264.2702 95.8001 15.26739777154610
Epoch: May 4, 2026 • Age: 10 hours

Current Status

Altitude 485.4 km
Velocity 7.63 km/s
Sub-Earth Point 19.54°N, 122.15°E
Launch Date Jul 16, 2023
Age 2.8 years
Type internet

Technical Details

Classification Payload
Mass 305.00 kg
Dry Mass 290.00 kg
Total Mass 305.00 kg
Length 0.20 m
Diameter 2.80 m
Span 9.00 m
Shape Box + pan
Manufacturer SPXS
Bus Type Starlink
Phase Status In Orbit
Owner/State SPXS/US

Most Searched